This demonstration page uses our WeatherBlox Daily Observations layout. Learn more.

Left ArrowRight Arrow

39.29038, -76.61219

Hourly Observations for May 18, 2021

Temp ( °F °C ) Dew Point ( °F °C ) Humidity (%) Winds ( mph kmh ) Pressure ( in mb ) Visibility ( mi km ) Precip ( " mm )
12:54 am 00:54 Mostly Cloudy 54 12.2 49 9.4 83 83 N N/A 30.32 1027 10 16 N/A
1:54 am 01:54 Mostly Cloudy 53 11.7 48 8.9 83 83 N N/A 30.32 1027 10 16 N/A
2:54 am 02:54 Mostly Cloudy 49 9.4 47 8.3 93 93 W 3 6 30.31 1027 10 16 N/A
3:54 am 03:54 Mostly Cloudy 53 11.7 47 8.3 80 80 N N/A 30.32 1027 10 16 N/A
4:54 am 04:54 Partly Cloudy 49 9.4 46 7.8 90 90 N N/A 30.33 1027 10 16 N/A
5:54 am 05:54 Mostly Sunny 49 9.4 46 7.8 90 90 N N/A 30.33 1027 10 16 N/A
6:54 am 06:54 Mostly Sunny 52 11.1 48 8.9 86 86 W 3 6 30.35 1028 10 16 N/A
7:54 am 07:54 Mostly Sunny 60 15.6 51 10.6 72 72 N N/A 30.37 1028 10 16 N/A
8:54 am 08:54 Mostly Sunny 68 20 49 9.4 51 51 W 5 7 30.38 1029 10 16 N/A
9:54 am 09:54 Mostly Sunny 73 22.8 44 6.7 35 35 VRB 3 6 30.38 1029 10 16 N/A
10:54 am 10:54 Mostly Sunny 75 23.9 48 8.9 39 39 N N/A 30.38 1029 10 16 N/A
11:54 am 11:54 Mostly Cloudy 77 25 47 8.3 35 35 N N/A 30.38 1029 10 16 N/A
12:54 pm 12:54 Mostly Cloudy 79 26.1 46 7.8 31 31 VRB 7 11 30.36 1028 10 16 N/A
1:54 pm 13:54 Mostly Cloudy 76 24.4 46 7.8 35 35 NW 6 9 30.34 1028 10 16 N/A
2:54 pm 14:54 Partly Cloudy 80 26.7 46 7.8 30 30 VRB 3 6 30.32 1027 10 16 N/A
3:54 pm 15:54 Partly Cloudy 80 26.7 45 7.2 29 29 SW 6 9 30.30 1026 10 16 N/A
4:54 pm 16:54 Partly Cloudy 81 27.2 45 7.2 28 28 SSW 6 9 30.28 1026 10 16 N/A
5:54 pm 17:54 Mostly Sunny 78 25.6 48 8.9 35 35 SSE 8 13 30.28 1025 10 16 N/A
6:54 pm 18:54 Mostly Sunny 76 24.4 48 8.9 37 37 SSE 7 11 30.27 1025 10 16 N/A
7:54 pm 19:54 Mostly Sunny 73 22.8 48 8.9 41 41 SSE 6 9 30.27 1025 10 16 N/A
8:54 pm 20:54 Mostly Clear 69 20.6 48 8.9 47 47 S 5 7 30.28 1025 10 16 N/A
9:54 pm 21:54 Clear 66 18.9 48 8.9 52 52 N N/A 30.30 1026 10 16 N/A
10:54 pm 22:54 Clear 66 18.9 47 8.3 50 50 SW 7 11 30.30 1026 10 16 N/A
11:54 pm 23:54 Clear 64 17.8 46 7.8 52 52 SW 5 7 30.30 1026 10 16 N/A

Powered by AerisWeather